TimeEST,TemperatureF,Dew PointF,Humidity,Sea Level PressureIn,VisibilityMPH,Wind Direction,Wind SpeedMPH,Gust SpeedMPH,PrecipitationIn,Events,Conditions,WindDirDegrees,DateUTC
12:15 AM,28.4,26.6,93,29.91,2.5,Calm,Calm,-,N/A,,Overcast,0,2013-02-16 05:15:00
12:35 AM,30.2,28.4,93,29.90,3.0,Calm,Calm,-,N/A,,Overcast,0,2013-02-16 05:35:00
12:55 AM,30.2,30.2,100,29.90,6.0,Calm,Calm,-,N/A,,Overcast,0,2013-02-16 05:55:00
1:15 AM,30.2,30.2,100,29.90,5.0,East,4.6,-,N/A,,Overcast,80,2013-02-16 06:15:00
1:35 AM,30.2,28.4,93,29.91,4.0,North,3.5,-,N/A,,Overcast,360,2013-02-16 06:35:00
1:55 AM,30.2,30.2,100,29.90,3.0,Calm,Calm,-,N/A,,Overcast,0,2013-02-16 06:55:00
2:15 AM,30.2,28.4,93,29.91,3.0,Calm,Calm,-,N/A,,Overcast,0,2013-02-16 07:15:00
2:35 AM,32.0,30.2,93,29.90,5.0,North,6.9,-,N/A,,Overcast,10,2013-02-16 07:35:00
2:55 AM,30.2,30.2,100,29.90,7.0,North,4.6,-,N/A,,Overcast,10,2013-02-16 07:55:00
3:15 AM,30.2,28.4,93,29.90,5.0,Calm,Calm,-,N/A,,Mostly Cloudy,0,2013-02-16 08:15:00
3:35 AM,32.0,28.4,87,29.90,10.0,Calm,Calm,-,N/A,,Mostly Cloudy,0,2013-02-16 08:35:00
3:55 AM,30.2,28.4,93,29.90,5.0,Calm,Calm,-,N/A,,Overcast,0,2013-02-16 08:55:00
4:15 AM,30.2,26.6,86,29.90,5.0,Calm,Calm,-,N/A,,Overcast,0,2013-02-16 09:15:00
4:35 AM,30.2,28.4,93,29.91,5.0,WNW,4.6,-,N/A,,Overcast,300,2013-02-16 09:35:00
4:55 AM,32.0,30.2,93,29.91,2.5,WNW,3.5,-,N/A,,Overcast,300,2013-02-16 09:55:00
5:15 AM,32.0,30.2,93,29.89,1.2,NNW,4.6,-,N/A,,Overcast,330,2013-02-16 10:15:00
5:35 AM,32.0,30.2,93,29.90,4.0,NW,4.6,-,N/A,,Overcast,320,2013-02-16 10:35:00
5:55 AM,30.2,30.2,100,29.91,3.0,WNW,6.9,-,N/A,,Overcast,300,2013-02-16 10:55:00
6:15 AM,30.2,28.4,93,29.91,3.0,NW,6.9,-,N/A,,Overcast,310,2013-02-16 11:15:00
6:35 AM,30.2,28.4,93,29.92,2.0,NNW,6.9,-,N/A,,Overcast,330,2013-02-16 11:35:00
6:55 AM,30.2,28.4,93,29.92,1.2,NNW,8.1,-,N/A,,Overcast,340,2013-02-16 11:55:00
7:15 AM,30.2,28.4,93,29.92,1.2,NNW,6.9,-,N/A,,Overcast,340,2013-02-16 12:15:00
7:35 AM,30.2,28.4,93,29.92,1.5,NNW,9.2,-,N/A,,Overcast,340,2013-02-16 12:35:00
7:55 AM,30.2,28.4,93,29.92,1.5,NNW,8.1,-,N/A,,Overcast,340,2013-02-16 12:55:00
8:15 AM,30.2,28.4,93,29.92,1.0,NNW,10.4,-,N/A,,Overcast,340,2013-02-16 13:15:00
8:35 AM,30.2,28.4,93,29.91,2.5,NNW,10.4,-,N/A,,Overcast,340,2013-02-16 13:35:00
8:55 AM,30.2,28.4,93,29.91,3.0,North,9.2,-,N/A,,Overcast,360,2013-02-16 13:55:00
9:15 AM,30.2,28.4,93,29.91,5.0,North,9.2,-,N/A,,Overcast,360,2013-02-16 14:15:00
9:35 AM,30.2,28.4,93,29.91,8.0,North,9.2,-,N/A,,Overcast,360,2013-02-16 14:35:00
9:55 AM,30.2,26.6,86,29.92,3.0,North,10.4,-,N/A,,Overcast,360,2013-02-16 14:55:00
10:15 AM,30.2,28.4,93,29.91,2.5,North,8.1,-,N/A,,Overcast,360,2013-02-16 15:15:00
10:35 AM,30.2,28.4,93,29.91,1.5,North,9.2,-,N/A,,Overcast,360,2013-02-16 15:35:00
10:55 AM,30.2,28.4,93,29.90,2.5,North,8.1,-,N/A,,Overcast,360,2013-02-16 15:55:00
11:15 AM,30.2,28.4,93,29.90,5.0,North,5.8,-,N/A,,Overcast,10,2013-02-16 16:15:00
11:35 AM,30.2,28.4,93,29.89,2.0,North,10.4,-,N/A,,Overcast,10,2013-02-16 16:35:00
11:55 AM,30.2,28.4,93,29.88,2.5,North,9.2,-,N/A,,Overcast,10,2013-02-16 16:55:00
12:15 PM,32.0,28.4,87,29.88,3.0,NNW,9.2,-,N/A,,Overcast,330,2013-02-16 17:15:00
12:35 PM,30.2,28.4,93,29.88,1.8,NNW,10.4,-,N/A,,Overcast,330,2013-02-16 17:35:00
12:55 PM,30.2,28.4,93,29.87,4.0,NNW,10.4,-,N/A,,Overcast,330,2013-02-16 17:55:00
1:15 PM,32.0,28.4,87,29.87,10.0,NNW,10.4,-,N/A,,Overcast,340,2013-02-16 18:15:00
1:35 PM,30.2,26.6,86,29.87,10.0,North,8.1,-,N/A,,Overcast,360,2013-02-16 18:35:00
1:55 PM,30.2,26.6,86,29.86,10.0,North,8.1,-,N/A,,Overcast,360,2013-02-16 18:55:00
2:15 PM,30.2,26.6,86,29.86,10.0,North,9.2,-,N/A,,Overcast,360,2013-02-16 19:15:00
2:35 PM,32.0,26.6,80,29.86,10.0,North,8.1,-,N/A,,Overcast,360,2013-02-16 19:35:00
2:55 PM,30.2,26.6,86,29.86,10.0,North,8.1,-,N/A,,Overcast,10,2013-02-16 19:55:00
3:15 PM,30.2,26.6,86,29.86,10.0,North,8.1,-,N/A,,Overcast,360,2013-02-16 20:15:00
3:35 PM,30.2,26.6,86,29.86,10.0,North,8.1,-,N/A,,Overcast,360,2013-02-16 20:35:00
3:55 PM,32.0,26.6,80,29.86,10.0,North,5.8,-,N/A,,Overcast,360,2013-02-16 20:55:00
4:15 PM,30.2,24.8,80,29.86,8.0,North,6.9,-,N/A,,Overcast,10,2013-02-16 21:15:00
4:35 PM,30.2,26.6,86,29.85,8.0,NNE,6.9,-,N/A,,Overcast,20,2013-02-16 21:35:00
5:15 PM,30.2,28.4,93,29.85,3.0,NNE,5.8,-,N/A,,Mostly Cloudy,20,2013-02-16 22:15:00
5:35 PM,30.2,26.6,86,29.85,10.0,NNE,6.9,-,N/A,,Partly Cloudy,30,2013-02-16 22:35:00
5:55 PM,30.2,26.6,86,29.85,10.0,NE,5.8,-,N/A,,Partly Cloudy,40,2013-02-16 22:55:00
6:15 PM,30.2,26.6,86,29.84,10.0,NNE,6.9,-,N/A,,Mostly Cloudy,30,2013-02-16 23:15:00
6:35 PM,30.2,26.6,86,29.84,10.0,NNE,5.8,-,N/A,,Overcast,30,2013-02-16 23:35:00
6:55 PM,30.2,24.8,80,29.84,10.0,NNE,8.1,-,N/A,,Overcast,20,2013-02-16 23:55:00
7:15 PM,30.2,24.8,80,29.84,10.0,NNE,9.2,-,N/A,,Overcast,20,2013-02-17 00:15:00
7:35 PM,28.4,24.8,86,29.85,10.0,North,6.9,-,N/A,,Overcast,360,2013-02-17 00:35:00
7:55 PM,28.4,23.0,80,29.84,3.0,North,15.0,21.9,N/A,,Overcast,10,2013-02-17 00:55:00
8:15 PM,28.4,19.4,69,29.85,9.0,North,11.5,-,N/A,,Overcast,360,2013-02-17 01:15:00
8:36 PM,26.6,19.4,74,29.84,5.0,North,18.4,-,N/A,,Overcast,10,2013-02-17 01:36:00
8:55 PM,26.6,17.6,69,29.83,10.0,North,13.8,18.4,N/A,,Overcast,360,2013-02-17 01:55:00
9:15 PM,26.6,15.8,64,29.82,10.0,North,17.3,-,N/A,,Overcast,10,2013-02-17 02:15:00
9:35 PM,26.6,15.8,64,29.81,10.0,North,16.1,21.9,N/A,,Overcast,10,2013-02-17 02:35:00
9:55 PM,26.6,15.8,64,29.80,10.0,North,13.8,24.2,N/A,,Overcast,10,2013-02-17 02:55:00
10:15 PM,26.6,15.8,64,29.79,10.0,North,11.5,23.0,N/A,,Overcast,360,2013-02-17 03:15:00
10:35 PM,26.6,14.0,59,29.79,10.0,North,13.8,-,N/A,,Scattered Clouds,360,2013-02-17 03:35:00
10:55 PM,26.6,12.2,55,29.79,10.0,North,11.5,16.1,N/A,,Mostly Cloudy,360,2013-02-17 03:55:00
11:15 PM,24.8,10.4,54,29.78,10.0,North,13.8,18.4,N/A,,Mostly Cloudy,360,2013-02-17 04:15:00
11:35 PM,24.8,10.4,54,29.78,10.0,North,11.5,20.7,N/A,,Overcast,360,2013-02-17 04:35:00
11:55 PM,24.8,10.4,54,29.77,10.0,North,11.5,-,N/A,,Overcast,360,2013-02-17 04:55:00